Madison, SD

7:12 PM CST on February 27, 2017 (GMT -0600)
Madison Municipal

Weather History for KMDS - January, 2013

Change the Weather History Date:

Monday, January 28, 2013

  Actual Average Record
Temperature  
Mean Temperature 32 °F -  
Max Temperature 33 °F 22 °F 42 °F (2015)
Min Temperature 30 °F 3 °F -9 °F (2014)
Degree Days  
Heating Degree Days 32    
Moisture  
Dew Point 32 °F    
Average Humidity 100    
Maximum Humidity 100    
Minimum Humidity 100    
Precipitation  
Precipitation 0.00 in - - ()
Sea Level Pressure  
Sea Level Pressure 29.73 in    
Wind  
Wind Speed 3 mph (SE)    
Max Wind Speed 16 mph    
Max Gust Speed -    
Averages and records for this station are not official NWS values.
T = Trace of Precipitation, MM = Missing Value Source: NWS Daily Summary

Daily Weather History Graph

Daily Weather History Graph

Search for Another Location

Airport or City:

Trip Planner

Search our weather history database for the weather conditions in past years. The results will help you decide how hot, cold, wet, or windy it might be!

Date:

Astronomy

Jan. 28, 2013 Rise Set
Actual Time 7:49 AM CST 5:33 PM CST
Civil Twilight 7:18 AM CST 6:04 PM CST
Nautical Twilight 6:43 AM CST 6:39 PM CST
Astronomical Twilight 6:09 AM CST 7:13 PM CST
Moon 7:35 PM CST 8:10 AM CST
Length of Visible Light 10h 45m
Length of Day
9h 43m
Full, 98% of the Moon is Illuminated
Jan 28
Full
Feb 3
Last Quarter
Feb 10
New
Feb 17
First Quarter
Feb 25
Full

Hourly Weather History & Observations

Time (CST) Temp. Windchill Dew Point Humidity Pressure Visibility Wind Dir Wind Speed Gust Speed Precip Events Conditions
12:00 AM 32.0 °F - 32.0 °F 100% 29.76 in 0.2 mi Calm Calm - N/A Fog Fog
12:20 AM 32.0 °F - 32.0 °F 100% 29.76 in 0.2 mi Calm Calm - N/A Fog Fog
12:40 AM 32.0 °F - 32.0 °F 100% 29.76 in 0.2 mi Calm Calm - N/A Fog Fog
1:00 AM 32.0 °F - 32.0 °F 100% 29.76 in 0.2 mi Calm Calm - N/A Fog Light Freezing Fog
1:20 AM 32.0 °F - 32.0 °F 100% 29.75 in 0.2 mi Calm Calm - N/A Fog Light Freezing Fog
1:40 AM 32.0 °F - 32.0 °F 100% 29.76 in 0.2 mi Calm Calm - N/A Fog Fog
2:00 AM 32.0 °F - 32.0 °F 100% 29.75 in 0.2 mi Calm Calm - N/A Fog Light Freezing Fog
2:20 AM 32.0 °F - 32.0 °F 100% 29.76 in 0.2 mi Calm Calm - N/A Fog Light Freezing Fog
2:40 AM 32.0 °F 28.7 °F 32.0 °F 100% 29.75 in 0.2 mi SE 3.5 mph - N/A Fog Fog
3:00 AM 32.0 °F 28.7 °F 32.0 °F 100% 29.76 in 0.5 mi South 3.5 mph - N/A Fog Fog
3:20 AM 32.0 °F - 32.0 °F 100% 29.77 in 0.2 mi Calm Calm - N/A Fog Light Freezing Fog
3:40 AM 32.0 °F 28.7 °F 32.0 °F 100% 29.78 in 0.2 mi WSW 3.5 mph - N/A Fog Light Freezing Fog
4:00 AM 32.0 °F - 32.0 °F 100% 29.77 in 0.2 mi Calm Calm - N/A Fog Light Freezing Fog
4:20 AM 32.0 °F 28.7 °F 32.0 °F 100% 29.77 in 0.2 mi SSE 3.5 mph - N/A Fog Light Freezing Fog
4:40 AM 32.0 °F - 32.0 °F 100% 29.78 in 0.2 mi Calm Calm - N/A Fog Light Freezing Fog
5:00 AM 32.0 °F 28.7 °F 32.0 °F 100% 29.79 in 0.2 mi SW 3.5 mph - N/A Fog Fog
5:20 AM 32.0 °F 27.5 °F 32.0 °F 100% 29.78 in 0.2 mi South 4.6 mph - N/A Fog Light Freezing Fog
5:40 AM 32.0 °F 26.4 °F 32.0 °F 100% 29.78 in 0.2 mi SSE 5.8 mph - N/A Fog Light Freezing Fog
6:00 AM 32.0 °F 28.7 °F 32.0 °F 100% 29.79 in 0.2 mi SSE 3.5 mph - N/A Fog Fog
6:20 AM 32.0 °F 28.7 °F 32.0 °F 100% 29.78 in 0.2 mi SE 3.5 mph - N/A Fog Fog
6:40 AM 32.0 °F 28.7 °F 32.0 °F 100% 29.79 in 0.2 mi South 3.5 mph - N/A Rain Light Rain
7:00 AM 32.0 °F 27.5 °F 32.0 °F 100% 29.78 in 0.2 mi SSE 4.6 mph - N/A Fog Fog
7:20 AM 32.0 °F - 32.0 °F 100% 29.79 in 0.2 mi Calm Calm - N/A Fog Fog
7:40 AM 32.0 °F 28.7 °F 32.0 °F 100% 29.80 in 0.2 mi SSW 3.5 mph - N/A Fog Fog
8:00 AM 32.0 °F 28.7 °F 32.0 °F 100% 29.80 in 0.2 mi SSW 3.5 mph - N/A Fog Fog
8:20 AM 32.0 °F - 32.0 °F 100% 29.80 in 0.2 mi Calm Calm - N/A Fog Fog
9:00 AM 32.0 °F - 32.0 °F 100% 29.80 in 0.2 mi Calm Calm - N/A Fog Fog
9:20 AM 32.0 °F 27.5 °F 32.0 °F 100% 29.79 in 0.2 mi South 4.6 mph - N/A Fog Fog
9:40 AM 32.0 °F 27.5 °F 32.0 °F 100% 29.80 in 0.2 mi South 4.6 mph - N/A Fog Fog
10:00 AM 32.0 °F 28.7 °F 32.0 °F 100% 29.79 in 0.2 mi South 3.5 mph - N/A Fog Fog
10:20 AM 32.0 °F 28.7 °F 32.0 °F 100% 29.79 in 0.2 mi South 3.5 mph - N/A Fog Fog
10:40 AM 32.0 °F 28.7 °F 32.0 °F 100% 29.80 in 0.2 mi SW 3.5 mph - N/A Fog Fog
11:00 AM 33.8 °F - 33.8 °F 100% 29.79 in 0.8 mi Calm Calm - N/A   Overcast
11:20 AM 33.8 °F 30.8 °F 33.8 °F 100% 29.79 in 2.5 mi SSW 3.5 mph - N/A   Overcast
11:40 AM 33.8 °F 30.8 °F 33.8 °F 100% 29.78 in 1.2 mi South 3.5 mph - N/A   Overcast
12:00 PM 33.8 °F 28.6 °F 33.8 °F 100% 29.76 in 0.5 mi ESE 5.8 mph - N/A Fog Fog
12:20 PM 33.8 °F 28.6 °F 33.8 °F 100% 29.75 in 0.2 mi SE 5.8 mph - N/A Fog Fog
12:40 PM 32.0 °F 27.5 °F 32.0 °F 100% 29.76 in 1.5 mi South 4.6 mph - N/A   Overcast
1:00 PM 32.0 °F 27.5 °F 32.0 °F 100% 29.76 in 0.2 mi South 4.6 mph - N/A Fog Fog
1:20 PM 32.0 °F 26.4 °F 32.0 °F 100% 29.75 in 0.2 mi SSW 5.8 mph - N/A Fog Fog
1:40 PM 32.0 °F 25.6 °F 32.0 °F 100% 29.75 in 0.2 mi South 6.9 mph - N/A Fog Fog
2:00 PM 32.0 °F 27.5 °F 32.0 °F 100% 29.74 in 0.2 mi SSE 4.6 mph - N/A Fog Fog
2:20 PM 32.0 °F 27.5 °F 32.0 °F 100% 29.74 in 0.2 mi SSE 4.6 mph - N/A Fog Fog
2:40 PM 32.0 °F 28.7 °F 32.0 °F 100% 29.73 in 0.2 mi ESE 3.5 mph - N/A Fog Fog
3:20 PM 32.0 °F 26.4 °F 32.0 °F 100% 29.71 in 0.2 mi East 5.8 mph - N/A Fog Fog
3:40 PM 32.0 °F 27.5 °F 32.0 °F 100% 29.71 in 0.2 mi East 4.6 mph - N/A Fog Fog
4:00 PM 32.0 °F 27.5 °F 32.0 °F 100% 29.71 in 0.2 mi NE 4.6 mph - N/A Fog Fog
4:20 PM 32.0 °F 27.5 °F 32.0 °F 100% 29.70 in 0.2 mi ENE 4.6 mph - N/A Fog Fog
4:40 PM 32.0 °F 25.6 °F 32.0 °F 100% 29.68 in 0.2 mi NE 6.9 mph - N/A Fog Fog
5:00 PM 32.0 °F 24.8 °F 32.0 °F 100% 29.68 in 0.2 mi NNE 8.1 mph - N/A Fog Fog
5:15 PM 32.0 °F 24.2 °F 32.0 °F 100% 29.68 in 0.2 mi NNE 9.2 mph - N/A Fog Fog
5:40 PM 32.0 °F 24.8 °F 32.0 °F 100% 29.66 in 0.2 mi ENE 8.1 mph - N/A Fog Fog
6:00 PM 32.0 °F 24.2 °F 32.0 °F 100% 29.66 in 0.2 mi ENE 9.2 mph - N/A Fog Fog
6:20 PM 32.0 °F 24.8 °F 32.0 °F 100% 29.66 in 0.2 mi NE 8.1 mph - N/A Fog Fog
6:40 PM 32.0 °F 23.0 °F 32.0 °F 100% 29.65 in 0.2 mi NE 11.5 mph - N/A Fog Fog
7:00 PM 32.0 °F 27.5 °F 32.0 °F 100% 29.67 in 0.5 mi ENE 4.6 mph - N/A Fog Fog
7:20 PM 32.0 °F 27.5 °F 32.0 °F 100% 29.69 in 0.8 mi SE 4.6 mph - N/A Rain Light Rain
7:40 PM 32.0 °F 28.7 °F 32.0 °F 100% 29.68 in 1.8 mi East 3.5 mph - N/A Rain Light Rain
8:00 PM 32.0 °F - 32.0 °F 100% 29.67 in 1.0 mi Calm Calm - N/A Rain Light Rain
8:20 PM 32.0 °F 28.7 °F 32.0 °F 100% 29.65 in 1.2 mi ENE 3.5 mph - N/A   Overcast
8:40 PM 32.0 °F - 32.0 °F 100% 29.65 in 1.8 mi Calm Calm - N/A   Overcast
9:00 PM 32.0 °F - 32.0 °F 100% 29.64 in 0.5 mi Calm Calm - N/A Fog Fog
9:20 PM 32.0 °F 27.5 °F 32.0 °F 100% 29.64 in 0.5 mi NW 4.6 mph - N/A Fog Fog
9:40 PM 32.0 °F 27.5 °F 32.0 °F 100% 29.63 in 0.8 mi North 4.6 mph - N/A   Overcast
10:00 PM 32.0 °F 26.4 °F 32.0 °F 100% 29.62 in 2.0 mi North 5.8 mph - N/A   Overcast
10:20 PM 32.0 °F 25.6 °F 32.0 °F 100% 29.60 in 0.8 mi NNE 6.9 mph - N/A   Overcast
10:40 PM 32.0 °F 24.2 °F 32.0 °F 100% 29.58 in 0.5 mi NNE 9.2 mph - N/A Fog Fog
11:00 PM 32.0 °F 23.6 °F 32.0 °F 100% 29.59 in 0.8 mi North 10.4 mph - N/A   Overcast
11:20 PM 32.0 °F 21.6 °F 32.0 °F 100% 29.61 in 1.0 mi North 15.0 mph - N/A Rain Light Rain
11:40 PM 30.2 °F 18.9 °F 30.2 °F 100% 29.59 in 1.0 mi North 16.1 mph - N/A Rain Light Freezing Rain